Wind_Speed
33 33 33 33 33 32 31 31 31 31 31 30 30 29 29 29 29 29 28 30 34 37 36 33 33 34 33 33 34 34 34 33 34 37 39 40 41 43 44 45 46 47 49 51 52 52 51 51 52 52 51 50 51 52 53 52 50 49 49 48 46 45 43 42 41 40 39 37 36 35 34 33 31 30
34 34 34 34 33 32 32 33 33 32 32 31 30 30 30 30 30 30 28 27 31 36 38 37 35 34 34 34 35 36 35 34 34 34 37 39 41 42 43 45 47 47 48 50 52 53 53 53 52 52 52 52 52 53 53 54 53 52 51 50 49 47 45 44 43 42 41 40 38 37 36 35 34 32
35 36 36 36 34 33 34 35 35 34 33 31 30 30 30 31 32 32 30 27 29 34 37 38 37 35 34 34 36 37 37 37 35 34 34 36 39 41 42 44 46 48 49 50 52 53 54 54 54 54 54 53 54 54 54 54 55 55 55 53 51 49 47 46 45 43 43 42 40 38 37 36 36 34
37 37 37 37 36 35 35 36 36 35 33 31 31 31 31 32 34 34 33 29 29 33 36 37 37 37 35 34 35 36 37 38 36 35 35 35 36 39 41 42 44 47 50 51 51 53 54 55 55 55 55 55 55 56 55 55 56 57 57 56 54 51 50 49 47 45 44 43 41 40 39 38 37 36
39 40 39 39 37 36 36 36 37 35 33 32 32 32 33 34 36 36 35 33 30 31 35 36 36 37 36 35 35 34 34 36 36 36 35 35 35 37 39 41 42 45 49 51 52 53 54 55 56 56 56 56 56 56 57 57 57 58 59 58 56 53 52 51 49 47 46 44 43 42 41 40 39 38
40 40 40 39 37 36 36 36 36 34 32 32 32 33 34 35 37 38 37 36 34 31 32 35 36 37 36 35 35 34 33 34 35 36 35 36 36 37 37 39 41 43 46 50 53 54 54 55 56 57 58 57 57 57 58 58 58 58 59 59 57 55 54 52 51 49 48 47 45 44 43 42 41 40
40 40 39 38 37 35 35 36 36 34 32 32 33 34 35 36 38 39 39 39 38 33 31 33 36 36 36 36 35 34 33 33 34 35 35 36 37 38 38 39 41 43 44 47 51 55 56 56 56 58 59 59 58 58 58 59 59 59 60 60 59 57 56 54 53 51 50 49 48 46 45 45 44 42
39 39 38 37 35 34 34 35 35 33 32 33 34 35 37 37 38 40 41 41 40 37 33 33 35 36 36 36 36 35 34 33 34 35 35 36 37 38 39 40 41 42 44 45 48 53 56 57 57 58 59 60 60 59 59 60 60 60 60 60 60 59 58 56 55 54 52 51 50 48 47 46 45 44
37 37 36 35 33 33 34 35 34 33 33 34 35 37 38 39 40 41 42 43 42 40 37 34 34 35 37 36 37 37 35 33 34 34 35 36 37 38 39 41 42 43 44 45 46 50 55 58 58 58 59 60 61 61 60 60 61 62 61 61 61 60 59 58 57 56 54 53 52 50 49 48 47 46
38 38 36 34 32 32 33 34 34 34 34 35 36 38 39 39 41 42 43 43 44 43 40 37 34 34 36 37 37 38 37 35 34 34 33 34 37 39 39 40 43 44 44 45 46 48 52 57 59 59 59 60 61 62 61 61 62 63 63 62 61 60 59 59 58 57 56 55 54 52 50 49 48 47
40 39 37 34 33 34 34 35 35 35 35 36 37 38 39 40 41 42 43 44 45 44 43 39 35 34 35 37 38 38 38 36 35 35 33 33 35 37 38 40 43 45 45 46 47 48 49 54 59 61 60 59 61 62 63 63 63 63 63 63 62 61 60 59 58 58 57 56 55 54 52 51 49 48
38 37 36 35 34 35 36 36 36 35 36 36 37 38 39 40 42 43 44 45 45 46 44 41 37 35 35 37 39 39 38 38 36 36 35 34 34 36 37 39 42 45 46 47 48 49 49 51 57 61 61 60 60 62 63 63 64 64 64 63 62 61 60 59 58 58 57 56 56 55 54 52 51 49
36 34 34 34 35 35 36 37 37 36 36 37 38 39 41 42 43 44 45 46 46 46 45 42 39 37 36 37 39 39 39 39 38 37 36 36 36 36 36 38 41 44 47 48 48 50 51 51 54 60 63 61 60 61 63 63 64 64 64 63 62 61 60 60 59 58 56 55 55 55 55 53 52 51
39 35 33 34 34 36 38 40 40 39 39 39 40 41 43 44 45 46 47 47 47 47 45 42 40 39 37 37 38 39 40 40 39 39 39 37 37 37 37 37 39 44 48 49 48 49 53 52 52 57 63 63 61 60 62 63 64 64 64 64 62 61 60 60 60 58 57 55 55 55 55 54 53 53
42 37 34 33 34 37 41 43 44 43 42 42 44 45 46 46 47 48 48 48 48 46 44 42 41 40 38 37 38 39 39 40 40 40 40 39 38 38 38 37 37 41 48 51 49 49 52 54 53 55 61 64 63 61 61 62 63 64 64 63 63 62 61 61 60 59 57 56 55 55 54 54 54 54
43 37 33 34 37 40 42 44 45 45 44 45 47 47 47 48 49 50 49 49 48 45 43 41 41 40 39 38 37 38 39 39 39 40 40 40 40 39 39 38 38 40 45 50 51 50 52 55 54 54 58 64 64 62 60 61 62 63 64 63 63 62 61 61 61 59 57 56 55 54 53 52 53 53
43 37 34 36 39 42 43 43 44 44 45 46 48 48 47 49 51 51 50 49 46 44 42 41 41 40 39 39 37 37 38 38 39 40 39 40 41 41 40 39 39 40 43 49 52 49 51 55 55 53 56 62 65 63 60 60 61 63 63 63 63 63 61 60 60 59 58 56 54 53 51 50 50 51
44 40 38 38 40 42 44 43 43 44 46 46 47 48 49 51 52 50 49 47 45 42 41 42 41 40 39 39 37 37 38 38 38 39 39 40 42 42 41 40 40 39 40 47 52 49 50 55 56 53 55 61 65 64 60 59 60 62 63 63 63 63 62 60 60 60 58 57 55 52 51 50 49 50
45 42 40 40 42 43 43 43 43 44 44 44 45 47 50 52 51 49 47 46 44 41 41 42 41 39 39 38 37 38 38 37 38 39 39 41 43 43 42 41 39 36 34 42 51 49 48 54 55 53 55 60 64 64 61 59 59 61 62 63 63 63 62 61 61 60 59 57 55 53 51 50 49 50
47 45 44 44 44 42 40 41 42 41 40 41 43 46 49 51 50 47 45 44 42 41 41 41 41 39 38 38 38 38 38 37 37 38 39 41 44 44 43 40 36 31 28 35 49 51 47 51 54 52 54 59 62 64 62 59 59 59 61 62 63 63 63 62 61 61 59 57 55 54 52 50 49 49
51 49 46 44 41 38 38 40 40 39 40 42 44 46 49 50 48 45 43 42 41 40 41 41 40 39 38 39 39 38 38 38 38 38 37 40 44 46 45 40 32 27 23 29 46 52 47 48 52 51 53 57 60 63 62 59 58 58 60 61 62 62 62 62 62 61 60 57 55 54 53 51 50 49
51 47 43 42 41 41 42 43 42 42 44 45 45 46 47 48 45 42 41 40 39 40 41 41 40 39 39 39 38 37 37 37 38 38 37 40 45 48 47 41 30 23 21 27 44 53 48 46 49 50 53 56 58 61 61 59 58 57 58 60 61 61 62 62 61 61 60 58 56 55 53 52 51 50
45 42 44 47 47 47 47 46 46 47 47 46 45 45 45 45 42 39 38 38 38 39 40 40 40 40 40 40 38 36 36 36 36 37 38 41 46 50 50 45 34 25 22 27 42 53 50 45 46 49 52 54 56 60 61 59 58 57 57 59 60 61 61 61 61 61 59 58 56 55 54 53 52 51
43 41 44 47 49 50 49 49 49 49 47 44 44 44 44 42 38 36 36 37 37 39 39 38 38 39 39 39 37 35 35 35 35 36 38 41 46 51 51 48 41 32 25 25 38 50 49 45 44 47 51 53 55 59 60 59 59 57 57 58 59 60 60 61 61 61 59 58 56 55 55 54 52 50
47 45 45 46 48 49 49 49 50 49 46 44 43 45 45 42 38 37 37 37 37 38 39 37 36 38 38 36 35 35 34 33 34 35 38 41 45 50 52 49 45 37 27 23 34 45 47 43 42 46 51 52 53 57 59 59 58 57 57 58 59 59 60 60 61 61 59 58 56 56 56 54 51 48
49 48 45 44 44 44 45 47 47 46 44 43 43 44 44 43 40 38 37 36 37 38 37 36 35 36 35 34 34 34 33 32 34 35 37 41 44 48 50 49 47 40 26 19 29 40 43 41 41 45 49 50 52 56 58 58 57 57 56 57 58 59 60 60 61 61 60 58 57 57 57 56 52 47
48 45 42 41 41 41 43 44 43 42 42 42 41 41 42 41 39 38 37 36 36 36 35 34 34 34 34 33 33 33 32 32 33 35 37 40 43 46 46 45 46 41 28 20 25 34 38 38 39 43 47 48 50 54 56 56 56 56 56 56 57 58 59 59 60 61 60 59 58 58 59 58 54 50
46 42 40 40 40 40 41 41 41 41 42 41 41 40 39 38 37 36 36 36 35 34 32 32 32 32 32 32 32 31 31 31 32 34 37 40 43 45 44 42 40 37 31 26 26 29 32 34 36 41 45 46 48 52 54 54 54 54 55 55 56 58 58 58 59 60 60 59 58 58 59 58 55 51
43 40 39 39 39 40 41 41 40 41 41 41 40 38 36 35 34 34 35 35 33 32 31 30 30 31 31 32 31 31 31 31 32 33 36 39 42 44 42 40 37 34 31 29 25 23 25 29 33 39 42 44 46 49 51 52 52 52 53 54 56 57 57 58 58 59 59 58 57 57 57 56 55 52
39 38 38 39 40 40 40 40 39 40 41 41 39 37 34 33 32 33 34 33 32 30 29 29 29 30 31 31 31 31 31 31 32 34 35 38 40 41 38 35 32 29 28 25 21 19 20 25 31 36 39 42 45 47 48 49 49 50 51 53 55 56 56 57 58 58 58 57 56 56 55 55 54 52
37 38 39 40 40 40 39 39 39 39 40 39 37 35 33 32 32 32 32 32 30 29 27 27 29 30 30 30 29 30 31 32 32 34 35 37 38 37 35 32 27 22 22 21 18 17 18 23 29 34 37 40 42 44 45 46 46 47 48 51 53 54 55 56 57 57 56 56 55 55 55 54 53 50
38 39 39 39 39 39 39 39 39 39 39 38 36 34 33 33 32 32 32 32 30 27 26 27 28 29 29 29 29 29 31 32 32 33 35 37 38 35 32 29 24 19 17 18 16 14 16 22 28 33 37 39 41 43 43 43 44 45 46 48 51 52 53 54 55 56 55 55 55 55 54 54 52 49
39 39 39 38 38 39 40 39 38 38 38 37 35 34 33 33 33 33 32 31 28 26 25 26 27 27 27 27 28 29 30 31 32 33 33 36 38 34 29 26 24 18 15 16 14 12 15 20 26 31 35 38 40 41 41 42 42 43 44 46 49 50 51 52 53 54 55 54 53 53 53 53 52 49
39 39 38 37 38 38 39 38 37 37 37 36 34 33 32 33 32 32 31 29 26 25 25 26 26 26 26 26 26 27 29 30 31 32 33 35 36 33 26 23 22 20 16 14 13 13 15 20 24 29 33 36 38 39 40 40 41 42 42 45 47 49 49 50 51 52 53 53 52 52 51 51 50 49
38 37 37 37 37 37 38 37 36 36 35 34 32 31 31 31 30 29 28 26 25 24 25 26 26 25 24 25 25 26 27 28 29 31 32 34 35 33 27 22 20 19 14 11 12 14 17 20 23 26 29 32 35 37 38 38 39 41 42 44 46 47 48 49 49 50 52 53 52 51 49 48 47 46
37 36 36 36 37 37 37 36 35 34 34 32 31 30 30 29 27 26 26 25 24 24 25 25 25 24 23 24 25 25 26 27 28 29 31 32 33 32 27 22 17 14 11 9 10 13 16 20 23 25 28 31 33 35 37 37 38 39 41 42 45 46 47 48 49 50 52 53 52 50 47 45 43 43
36 36 36 36 36 36 36 36 34 33 32 31 30 30 30 29 27 25 24 24 23 24 24 24 23 23 22 23 24 25 25 26 27 27 29 30 31 30 27 22 15 9 11 11 10 13 16 19 21 24 26 28 31 33 35 38 38 38 40 43 45 46 47 48 48 49 49 51 51 49 45 43 42 42
36 35 35 36 36 36 36 35 34 33 32 31 30 29 30 29 27 24 23 23 23 23 24 23 22 21 21 22 23 23 24 25 26 26 28 29 30 30 28 23 14 5 13 13 11 13 16 17 20 24 25 26 30 33 35 37 38 39 42 44 45 46 48 48 49 49 48 49 50 49 46 43 42 42
35 34 35 35 35 36 35 35 34 32 31 30 28 27 27 27 25 23 22 22 22 22 22 22 21 21 20 21 22 22 22 23 24 25 27 28 29 29 27 23 17 6 10 13 10 11 15 15 18 22 25 26 29 31 33 35 36 37 40 42 43 45 47 47 48 47 47 47 49 50 48 45 43 42
33 33 34 34 34 34 34 33 32 30 29 28 26 25 24 23 22 21 21 20 20 20 20 20 20 19 19 20 21 21 21 21 22 23 25 26 27 28 27 24 20 11 4 9 8 9 14 15 17 21 25 27 29 31 34 35 34 34 38 41 42 44 45 46 46 47 45 46 48 49 47 45 43 42
32 32 32 32 32 32 31 29 28 26 26 25 24 22 21 20 19 19 19 19 18 18 18 18 18 18 18 19 19 20 20 20 21 22 23 24 25 26 26 25 22 16 10 8 7 9 14 16 17 20 24 28 30 32 34 36 34 35 37 38 40 42 44 44 44 45 45 45 47 48 48 46 44 43
31 31 31 31 30 29 28 26 24 23 23 23 21 20 19 18 18 18 18 18 17 17 17 17 17 17 17 18 18 19 19 19 20 21 22 23 24 25 25 25 23 19 15 12 5 8 14 16 19 21 23 26 29 31 34 35 35 35 35 35 36 39 43 44 43 43 43 45 46 47 47 46 43 42
30 30 30 29 28 28 27 26 24 22 22 21 21 21 20 20 19 18 18 18 17 17 17 17 17 17 17 17 18 18 19 19 19 20 20 21 22 23 23 23 22 20 18 15 8 4 11 15 19 22 23 25 28 30 32 33 33 33 34 34 34 35 37 40 41 42 42 42 44 46 47 46 44 42
30 30 29 28 27 27 27 26 25 24 23 22 22 22 22 22 22 20 20 19 18 18 17 18 18 18 17 17 18 18 18 18 18 19 20 20 20 21 21 22 22 20 19 17 12 4 5 12 18 23 25 26 29 30 30 30 31 32 33 34 35 35 36 38 40 41 41 41 42 45 46 46 45 43
31 31 29 28 27 26 26 25 25 24 23 23 22 23 23 23 23 22 21 20 20 19 18 18 18 18 18 17 18 18 18 17 18 18 18 19 19 19 19 20 20 20 19 18 15 10 3 6 13 19 23 27 30 31 30 29 30 31 33 34 35 36 38 41 42 42 42 42 43 44 45 45 44 43
Wind_Direction
318 317 317 317 317 316 314 312 312 314 315 315 315 317 318 317 317 318 318 317 315 313 311 305 301 299 298 295 292 290 288 284 275 267 261 259 258 257 255 253 250 247 244 242 240 238 236 236 236 236 234 232 232 231 231 230 229 229 231 233 234 236 237 237 236 236 235 235 236 237 238 238 237 237
317 317 316 316 316 315 313 312 312 313 314 314 314 314 316 316 316 317 317 316 313 312 310 306 302 299 296 293 290 289 288 287 285 277 268 262 259 257 256 254 252 249 246 244 242 239 237 235 235 235 235 233 232 231 231 230 229 229 230 230 231 233 234 236 236 236 236 234 234 235 237 237 237 237
316 316 315 314 314 314 312 312 312 313 313 313 312 312 313 314 314 315 316 315 312 311 309 305 301 299 295 291 289 288 287 287 286 285 279 271 263 259 257 255 252 251 249 246 244 241 238 236 234 234 234 233 232 231 231 230 230 229 229 229 230 230 231 234 235 236 236 235 234 234 236 237 237 237
314 314 313 312 312 312 310 311 312 312 312 312 311 310 310 312 312 313 314 315 312 310 308 304 299 297 294 290 288 287 286 286 285 285 283 279 272 265 261 257 254 251 249 248 246 243 241 237 235 233 233 233 232 231 230 230 230 230 230 229 229 229 230 231 233 234 235 236 235 235 235 236 237 237
312 311 310 309 309 308 308 309 311 310 311 311 309 308 308 309 311 311 312 313 311 308 307 302 297 295 293 289 287 285 284 284 284 283 282 280 278 273 267 262 258 253 250 248 247 245 243 240 236 234 233 232 231 231 230 229 230 231 231 230 230 230 230 231 231 232 234 235 235 234 234 235 236 237
311 309 308 306 305 305 305 307 308 308 307 308 307 306 306 308 309 309 309 310 310 307 304 301 297 295 293 289 285 284 282 280 280 280 279 278 278 276 272 268 263 257 252 249 247 246 244 241 238 235 233 232 231 230 230 229 229 230 231 230 230 230 230 231 231 232 233 234 234 233 233 234 235 235
314 311 308 305 303 303 303 305 306 305 305 306 306 304 305 307 307 307 306 306 308 307 303 299 297 295 293 290 285 282 280 278 277 276 276 276 275 275 274 271 268 263 257 250 247 246 245 243 240 236 234 232 231 229 229 228 228 229 230 230 230 230 230 230 231 232 232 233 233 233 233 233 233 234
320 316 310 305 302 301 302 303 303 303 304 305 305 303 304 305 306 305 303 303 305 306 304 300 298 295 293 290 287 283 280 278 277 276 275 275 274 273 272 270 268 266 262 255 249 246 245 244 241 238 235 232 231 230 228 228 228 228 229 229 229 230 230 230 230 230 231 233 233 233 233 233 233 234
325 322 314 307 302 300 300 300 300 300 302 304 304 303 303 304 304 303 301 302 303 304 303 301 298 295 292 290 287 284 281 279 278 277 277 276 275 272 271 270 268 265 263 259 253 247 244 243 242 240 236 233 231 230 229 228 227 227 228 229 229 229 229 229 229 229 230 231 233 233 233 233 233 234
323 321 315 308 302 299 298 297 298 299 301 303 303 303 303 304 303 301 300 300 301 302 302 301 298 293 290 288 286 284 283 281 278 278 278 279 278 276 273 271 269 266 262 260 257 250 244 242 242 241 238 234 232 230 229 228 227 226 226 227 228 228 229 229 228 228 229 230 232 233 233 233 234 235
315 314 313 308 303 299 297 297 298 299 301 302 303 302 303 303 302 300 299 299 300 300 300 300 298 292 287 286 285 284 284 283 281 279 277 277 278 277 276 273 270 268 264 260 257 253 247 241 240 240 239 236 233 231 229 228 227 226 225 226 227 228 228 228 228 228 228 229 230 231 232 233 234 236
314 310 308 307 303 300 297 295 296 299 300 302 303 304 303 302 300 298 298 298 299 298 299 299 298 292 288 286 285 284 284 283 282 282 280 277 276 275 275 274 272 268 264 261 257 254 250 243 239 238 238 237 234 232 230 228 227 226 225 225 226 227 227 226 227 227 227 228 229 230 231 232 233 235
319 313 306 304 302 299 296 295 295 297 300 303 305 305 304 302 300 298 297 298 298 298 298 299 298 294 290 287 286 285 284 283 282 283 283 280 278 275 273 274 275 271 265 260 257 255 251 245 238 236 237 237 235 233 231 229 227 226 225 225 225 226 225 225 226 227 227 227 228 229 230 230 232 234
324 318 306 299 300 300 299 297 296 297 301 303 305 305 303 301 299 297 297 297 298 297 298 299 298 294 291 289 287 286 284 283 283 283 283 281 280 278 274 272 275 277 271 262 256 253 252 247 239 234 234 235 235 233 231 230 228 226 225 224 224 225 224 224 225 226 227 227 227 228 228 229 230 232
324 320 308 298 297 300 301 300 297 297 300 304 305 304 302 299 298 297 296 297 297 297 298 299 297 295 292 290 288 287 284 283 282 283 284 283 282 280 276 271 270 275 274 267 258 253 251 249 242 234 232 233 234 233 232 230 229 227 225 224 224 224 224 224 224 225 226 227 227 228 228 228 229 230
322 319 309 299 296 298 300 302 299 297 299 302 303 302 299 298 296 295 295 296 297 298 299 299 297 295 293 291 289 287 285 283 283 284 285 285 285 284 281 275 270 271 272 268 261 254 251 249 244 235 231 231 232 232 231 230 229 227 225 224 223 224 224 224 224 224 225 226 227 228 228 228 230 231
321 319 311 302 298 298 300 302 299 297 300 302 301 299 297 296 295 295 296 297 298 299 299 298 297 294 292 291 290 288 286 285 285 286 286 288 289 287 285 280 275 274 273 268 262 255 251 249 244 236 231 229 230 230 230 229 229 227 225 224 223 223 224 224 224 224 224 225 226 227 228 228 230 232
320 319 314 307 303 300 299 299 298 297 300 300 298 295 295 295 295 297 298 299 299 300 300 298 296 294 292 291 290 289 289 289 289 289 289 290 291 290 287 284 280 278 275 268 262 256 250 248 244 237 232 228 227 229 229 228 228 227 225 224 223 222 223 224 224 224 224 224 225 226 227 228 230 232
318 317 314 310 305 300 298 298 298 299 299 298 295 293 293 295 297 300 300 299 299 300 300 299 297 295 293 292 292 292 292 293 293 293 293 294 294 292 289 287 283 280 276 269 263 256 248 246 243 237 232 229 226 226 227 227 227 227 225 223 222 221 222 223 223 223 223 224 224 225 227 228 230 231
316 315 313 310 305 300 298 298 299 299 299 297 294 292 292 295 299 300 299 298 299 299 300 299 297 295 294 294 294 294 295 295 295 295 297 298 298 296 293 291 287 281 277 269 264 258 248 243 242 237 232 229 225 224 226 226 226 226 224 223 222 221 221 222 223 223 223 224 224 225 227 229 230 231
316 316 313 310 304 299 298 299 299 301 301 299 295 291 292 296 299 299 297 297 298 299 300 299 296 295 295 295 296 296 296 297 297 297 300 302 302 302 299 297 290 280 276 269 261 257 250 242 239 235 232 228 224 223 224 225 225 225 224 223 221 220 220 221 222 222 222 223 224 225 227 228 229 230
317 314 307 302 298 295 297 299 298 301 304 301 295 292 292 296 299 298 297 297 298 299 299 297 295 295 295 295 296 296 297 299 299 301 305 307 308 308 306 302 292 277 282 276 260 255 252 244 237 234 231 228 223 221 223 224 224 224 224 222 221 220 220 220 221 222 222 223 224 225 226 228 229 229
315 306 298 296 295 294 295 297 298 302 303 300 294 291 292 296 299 299 296 296 297 297 297 296 294 294 295 296 297 297 298 299 300 304 309 312 313 312 310 307 298 284 290 283 261 254 253 246 237 232 229 226 222 221 221 223 223 223 223 222 220 220 220 219 220 220 221 222 223 224 225 227 228 228
310 300 293 292 292 293 294 295 297 301 302 298 293 291 293 298 300 299 297 296 296 295 295 294 293 293 295 297 298 298 299 299 301 306 311 314 315 314 311 310 304 297 300 287 262 255 254 248 238 231 228 225 221 220 220 221 222 222 221 221 220 219 219 219 219 219 220 221 222 223 224 226 227 227
306 301 295 290 290 293 295 295 298 300 301 299 295 293 295 298 300 299 297 296 296 295 294 293 292 293 295 297 298 298 299 299 301 306 311 313 315 315 313 310 305 303 305 288 262 255 253 248 239 231 227 223 220 219 219 220 221 221 221 220 219 218 218 218 218 218 219 220 221 222 223 225 226 227
305 303 299 295 294 297 298 299 301 303 304 303 299 296 296 298 299 298 296 295 295 295 294 292 292 293 295 297 298 298 299 299 301 306 310 313 315 316 315 311 306 303 301 280 261 256 251 245 238 231 226 222 219 219 219 219 220 221 220 219 218 218 218 217 217 217 218 219 221 222 223 224 225 226
304 302 299 297 299 302 302 303 305 307 308 307 304 300 299 299 300 298 295 293 293 294 293 291 292 294 296 298 298 298 298 299 301 306 311 313 315 316 315 311 306 303 297 282 267 259 250 242 235 230 225 221 218 219 219 219 219 220 220 218 218 218 218 217 216 217 217 219 221 222 223 224 225 226
302 299 298 300 303 305 305 306 308 309 310 309 306 303 301 301 300 298 294 292 293 293 292 291 293 296 298 298 298 298 297 298 302 307 311 314 316 316 315 312 306 301 295 290 281 266 251 240 231 226 223 219 216 218 219 219 219 220 219 218 217 217 217 217 216 216 217 219 221 222 224 225 226 227
300 299 299 301 303 304 306 308 309 309 309 309 307 305 303 301 299 296 293 292 293 293 291 291 295 297 299 299 299 298 298 300 304 308 312 315 316 317 317 313 307 298 292 290 286 271 252 239 228 223 219 216 214 215 217 219 219 220 219 218 217 217 217 217 216 216 217 218 221 223 224 225 226 228
298 298 298 299 300 302 305 308 308 307 307 308 307 305 303 300 297 295 293 293 294 293 290 292 295 297 299 300 300 299 300 303 306 309 312 315 316 318 318 311 302 294 288 284 282 272 252 234 224 218 214 213 212 212 214 217 219 220 219 218 217 217 217 216 216 215 216 218 220 222 223 223 225 226
297 298 297 297 298 300 302 305 306 305 306 306 306 304 302 299 296 295 294 295 294 292 290 292 295 297 300 301 301 301 302 304 307 310 314 317 318 320 319 310 299 292 286 277 272 266 247 225 216 213 209 209 210 210 212 216 218 220 220 218 217 217 217 217 216 215 216 218 219 221 222 222 223 224
297 298 298 298 297 297 299 302 304 304 304 304 304 302 299 297 296 295 294 295 294 290 288 291 294 297 300 301 300 301 302 305 308 312 316 319 321 324 324 313 299 291 285 275 263 253 236 218 210 208 206 207 209 210 212 215 218 220 220 218 218 218 218 217 216 216 216 218 220 221 221 221 222 223
298 299 299 297 296 295 297 300 302 302 303 303 302 301 299 297 295 294 293 294 291 287 286 290 294 297 299 301 301 302 304 307 310 314 319 322 322 327 332 321 304 296 291 278 258 236 222 214 209 206 206 208 211 212 214 216 218 220 220 218 217 218 218 218 217 217 217 219 220 221 222 222 223 226
299 299 298 297 296 296 297 299 300 300 301 302 302 301 300 298 295 293 292 291 287 284 285 290 295 298 300 301 302 303 305 308 312 316 322 324 323 329 340 334 313 301 295 279 256 229 217 215 211 209 208 210 212 215 216 217 218 218 219 218 217 217 218 219 218 217 218 219 220 222 222 223 224 227
299 299 298 297 297 297 297 297 298 300 301 301 300 299 301 301 298 293 291 289 285 282 285 290 294 297 300 302 303 304 306 308 313 318 322 324 326 332 344 346 323 302 286 268 250 231 219 218 216 213 212 212 213 216 217 217 217 218 218 217 216 216 217 218 218 218 219 219 220 221 222 223 224 227
299 298 297 297 297 296 296 297 298 299 300 299 296 296 299 303 300 294 290 288 284 282 285 289 294 298 301 302 304 305 307 310 315 319 322 326 329 334 346 352 332 296 259 239 239 228 220 221 219 216 217 216 215 215 215 215 216 217 217 217 216 216 216 217 217 217 218 219 220 220 220 222 224 226
299 298 298 297 296 295 296 296 298 298 298 297 294 293 296 300 299 293 288 287 285 284 286 290 294 298 301 302 305 307 308 311 315 319 323 328 332 336 347 355 342 279 227 225 238 230 224 226 222 216 218 219 217 217 216 214 213 213 214 215 215 215 216 216 216 217 219 219 219 219 219 220 223 226
299 298 297 296 295 295 295 296 297 296 295 295 294 293 294 297 297 291 286 285 285 286 288 291 294 297 299 301 304 306 308 312 315 319 325 331 335 338 345 355 356 271 224 233 241 225 223 229 223 216 217 218 216 218 218 216 213 212 212 213 215 216 217 216 216 217 218 219 218 218 218 219 222 224
298 298 297 296 295 294 295 296 296 295 294 294 295 294 294 294 294 290 286 286 286 287 289 291 293 296 298 300 302 304 307 311 315 320 326 332 336 339 344 355 6 347 245 250 247 211 208 221 220 214 213 212 211 213 216 216 214 213 213 214 215 218 220 220 218 219 219 218 217 216 217 219 221 223
298 297 296 295 294 295 296 297 296 294 293 293 293 293 293 293 292 288 286 286 286 286 287 289 291 294 296 298 300 302 305 309 314 320 326 331 335 339 344 352 4 11 313 276 264 207 195 209 216 211 208 208 206 205 209 212 211 211 214 217 218 220 223 223 222 222 221 219 217 216 217 220 222 224
296 295 295 295 295 297 298 299 296 293 292 291 290 290 292 294 292 287 285 285 285 285 286 287 289 291 293 295 297 300 304 309 314 320 325 330 334 339 343 349 359 12 15 343 292 220 200 206 212 209 207 208 207 205 205 206 205 207 212 216 219 222 225 226 225 225 223 221 219 216 216 220 223 224
295 295 295 296 297 297 298 299 296 293 292 289 286 286 289 292 292 288 285 284 284 284 285 287 288 290 291 293 295 299 303 308 314 319 323 329 334 337 341 347 355 4 13 13 340 233 217 210 207 207 208 208 206 206 205 204 205 208 211 213 217 222 225 226 227 226 224 222 220 218 218 221 223 223
295 296 296 296 295 295 295 296 294 292 290 288 285 284 286 288 290 289 287 285 285 285 285 287 288 289 290 291 294 297 301 306 311 317 321 326 331 336 338 343 350 357 6 18 24 253 229 210 199 202 208 208 206 206 206 207 209 213 213 214 218 222 225 226 226 224 222 221 220 219 219 222 223 222
295 295 295 294 293 292 292 292 291 290 289 287 285 283 284 286 287 287 286 285 285 285 286 287 287 288 288 290 291 294 299 304 308 314 319 322 327 333 336 339 344 351 358 10 23 16 237 216 205 204 207 207 207 209 210 211 214 217 219 220 222 223 224 225 224 221 220 221 220 218 218 220 222 222
293 293 293 292 291 290 290 290 289 289 288 287 286 284 284 284 285 284 283 283 283 284 284 285 286 286 287 288 290 292 296 301 306 310 315 318 322 328 334 336 339 345 351 359 10 20 16 221 216 214 212 208 205 206 210 215 218 221 225 227 226 224 223 222 220 219 220 222 221 218 218 219 220 220
Height
5850 5848 5847 5845 5844 5842 5839 5837 5835 5833 5831 5829 5827 5825 5824 5823 5822 5821 5819 5817 5813 5809 5809 5809 5808 5806 5805 5804 5802 5801 5800 5800 5800 5800 5800 5801 5801 5801 5802 5804 5805 5807 5809 5811 5814 5817 5819 5822 5825 5828 5831 5833 5835 5838 5840 5843 5846 5849 5851 5853 5856 5859 5862 5865 5867 5869 5870 5872 5874 5876 5878 5880 5882 5883
5847 5845 5843 5842 5840 5838 5836 5833 5831 5829 5827 5825 5823 5821 5820 5818 5817 5817 5816 5814 5811 5807 5804 5803 5803 5802 5800 5799 5797 5796 5795 5795 5794 5795 5795 5795 5795 5796 5796 5797 5799 5800 5802 5804 5806 5809 5812 5815 5818 5821 5824 5827 5829 5832 5834 5837 5840 5843 5845 5848 5850 5853 5856 5859 5862 5864 5866 5868 5870 5872 5874 5876 5878 5880
5844 5841 5840 5838 5837 5835 5832 5830 5827 5825 5823 5821 5819 5817 5816 5814 5813 5812 5811 5810 5808 5805 5802 5799 5797 5797 5796 5794 5793 5791 5790 5789 5789 5789 5789 5789 5789 5790 5791 5791 5793 5794 5795 5797 5799 5801 5805 5808 5811 5814 5817 5820 5823 5825 5828 5831 5834 5836 5839 5842 5844 5847 5850 5853 5856 5859 5862 5864 5866 5868 5870 5872 5874 5876
5839 5837 5835 5834 5832 5831 5829 5826 5823 5821 5819 5817 5815 5814 5812 5810 5809 5807 5807 5806 5804 5802 5800 5796 5793 5792 5791 5790 5788 5788 5786 5784 5784 5784 5783 5783 5783 5784 5784 5785 5786 5787 5789 5790 5792 5794 5797 5800 5804 5807 5810 5813 5816 5819 5822 5825 5827 5830 5833 5836 5838 5841 5844 5847 5850 5854 5857 5859 5862 5864 5866 5868 5870 5873
5835 5833 5831 5829 5828 5827 5825 5822 5820 5817 5815 5813 5811 5810 5808 5806 5804 5803 5802 5801 5800 5798 5796 5793 5790 5788 5787 5786 5784 5784 5783 5781 5779 5779 5778 5778 5777 5777 5778 5779 5779 5781 5782 5783 5785 5787 5789 5792 5796 5800 5803 5806 5809 5812 5815 5818 5821 5824 5827 5830 5832 5835 5838 5841 5844 5848 5851 5854 5857 5859 5862 5864 5866 5868
5830 5829 5827 5825 5824 5822 5820 5818 5816 5814 5811 5809 5807 5805 5804 5802 5800 5798 5797 5796 5795 5794 5791 5788 5786 5783 5783 5781 5780 5779 5779 5777 5775 5774 5773 5773 5772 5772 5772 5772 5773 5773 5775 5776 5778 5780 5782 5784 5788 5792 5795 5799 5802 5805 5809 5812 5815 5817 5820 5823 5826 5829 5833 5836 5839 5842 5845 5848 5851 5854 5857 5859 5862 5864
5826 5824 5822 5820 5819 5818 5816 5814 5812 5810 5807 5805 5803 5801 5799 5798 5796 5794 5792 5791 5790 5789 5787 5784 5781 5779 5777 5776 5775 5774 5774 5773 5771 5770 5769 5768 5767 5766 5766 5766 5766 5766 5767 5769 5770 5772 5774 5777 5780 5784 5787 5791 5795 5798 5801 5805 5808 5811 5814 5817 5820 5823 5826 5830 5833 5836 5839 5843 5846 5849 5851 5854 5857 5859
5821 5819 5817 5816 5815 5813 5811 5809 5807 5805 5803 5801 5799 5797 5795 5793 5791 5789 5787 5785 5784 5784 5782 5780 5778 5775 5772 5771 5769 5768 5768 5768 5766 5765 5764 5763 5762 5761 5760 5760 5759 5759 5759 5761 5763 5765 5767 5769 5772 5775 5779 5783 5787 5790 5794 5797 5801 5804 5807 5810 5814 5817 5820 5824 5827 5830 5834 5837 5840 5843 5846 5849 5851 5854
5817 5815 5813 5811 5810 5809 5807 5805 5803 5801 5799 5797 5795 5793 5791 5788 5786 5784 5782 5780 5778 5777 5776 5775 5773 5770 5767 5766 5763 5761 5762 5763 5761 5760 5759 5758 5756 5755 5755 5754 5753 5752 5752 5753 5755 5757 5759 5761 5764 5767 5771 5775 5779 5782 5786 5790 5794 5797 5801 5804 5808 5811 5814 5818 5821 5825 5828 5831 5834 5837 5840 5843 5846 5849
5813 5811 5809 5807 5805 5804 5803 5800 5798 5796 5794 5792 5790 5788 5786 5784 5782 5779 5777 5774 5772 5771 5770 5769 5769 5766 5762 5760 5758 5755 5756 5757 5756 5755 5754 5753 5750 5749 5749 5748 5746 5745 5745 5746 5747 5749 5751 5753 5756 5759 5762 5766 5770 5774 5778 5782 5786 5790 5794 5798 5801 5805 5808 5812 5816 5819 5822 5825 5829 5832 5834 5837 5841 5844
5809 5807 5805 5803 5801 5800 5798 5796 5794 5791 5789 5787 5785 5783 5781 5779 5777 5774 5772 5769 5767 5765 5764 5763 5762 5761 5758 5755 5752 5750 5749 5750 5749 5749 5749 5748 5745 5743 5742 5741 5739 5738 5738 5739 5739 5741 5742 5745 5747 5750 5754 5758 5762 5766 5770 5774 5778 5783 5787 5791 5795 5799 5802 5806 5810 5813 5816 5820 5823 5826 5829 5832 5835 5838
5805 5802 5800 5798 5797 5795 5793 5791 5789 5787 5785 5782 5780 5778 5776 5774 5771 5769 5766 5764 5761 5759 5757 5757 5756 5755 5753 5750 5747 5745 5744 5743 5742 5742 5741 5741 5740 5738 5736 5734 5731 5730 5730 5731 5731 5732 5734 5736 5739 5741 5745 5749 5753 5758 5762 5766 5771 5775 5780 5784 5789 5792 5796 5800 5803 5807 5810 5814 5817 5821 5824 5827 5830 5833
5800 5797 5796 5794 5792 5791 5789 5786 5784 5782 5780 5778 5775 5773 5771 5768 5766 5763 5761 5758 5756 5753 5751 5750 5749 5748 5747 5744 5742 5740 5738 5736 5736 5735 5734 5733 5732 5731 5731 5728 5724 5721 5721 5723 5724 5725 5725 5726 5730 5733 5736 5741 5745 5749 5754 5758 5763 5768 5772 5777 5782 5786 5790 5793 5797 5801 5804 5808 5811 5815 5818 5821 5824 5827
5795 5793 5791 5790 5788 5786 5784 5781 5779 5776 5774 5772 5770 5768 5765 5762 5760 5758 5755 5753 5750 5748 5746 5744 5742 5741 5741 5739 5736 5734 5732 5730 5729 5728 5726 5726 5725 5724 5724 5723 5719 5713 5711 5713 5717 5718 5716 5717 5721 5724 5728 5732 5736 5740 5746 5751 5755 5760 5765 5770 5775 5779 5783 5786 5790 5794 5798 5802 5805 5808 5812 5815 5818 5821
5790 5788 5787 5785 5784 5781 5779 5776 5774 5771 5769 5766 5764 5762 5759 5756 5754 5752 5750 5747 5744 5742 5741 5739 5736 5734 5734 5733 5731 5728 5726 5724 5722 5720 5719 5718 5718 5717 5716 5716 5715 5708 5702 5703 5708 5710 5708 5708 5712 5716 5719 5723 5728 5732 5737 5743 5747 5752 5757 5762 5767 5772 5776 5780 5783 5788 5792 5795 5799 5802 5805 5809 5812 5815
5785 5783 5782 5780 5778 5776 5773 5771 5768 5765 5763 5760 5758 5755 5752 5750 5748 5745 5743 5741 5739 5737 5735 5733 5730 5728 5727 5726 5725 5722 5720 5719 5717 5714 5712 5711 5710 5709 5708 5708 5707 5702 5696 5695 5698 5702 5701 5699 5702 5708 5711 5714 5719 5723 5729 5734 5739 5745 5749 5754 5760 5765 5769 5773 5777 5782 5786 5789 5793 5796 5799 5803 5806 5810
5780 5778 5776 5774 5772 5769 5766 5764 5761 5759 5757 5754 5751 5748 5745 5743 5741 5739 5737 5734 5733 5732 5730 5728 5725 5722 5720 5719 5718 5716 5714 5713 5710 5708 5706 5705 5702 5701 5700 5699 5698 5694 5689 5686 5688 5693 5694 5689 5692 5700 5704 5706 5710 5715 5721 5726 5731 5737 5742 5747 5752 5757 5762 5767 5771 5776 5780 5783 5787 5790 5794 5797 5801 5804
5775 5773 5771 5768 5765 5762 5759 5757 5755 5753 5751 5748 5744 5741 5738 5736 5734 5732 5730 5728 5727 5726 5724 5722 5720 5717 5715 5713 5712 5710 5708 5706 5704 5701 5700 5698 5695 5694 5693 5691 5689 5686 5682 5678 5678 5683 5684 5680 5683 5692 5696 5697 5701 5707 5713 5719 5724 5729 5735 5739 5745 5750 5755 5760 5765 5769 5774 5778 5781 5785 5788 5792 5795 5799
5769 5767 5764 5762 5758 5755 5753 5751 5749 5747 5744 5742 5739 5735 5732 5730 5728 5726 5724 5723 5721 5719 5717 5715 5713 5711 5709 5707 5705 5703 5702 5700 5698 5695 5693 5691 5687 5686 5685 5683 5681 5678 5675 5671 5668 5672 5675 5672 5675 5684 5687 5689 5694 5700 5705 5711 5716 5722 5727 5732 5738 5743 5748 5754 5758 5763 5768 5772 5776 5779 5783 5787 5790 5794
5762 5759 5757 5754 5751 5749 5747 5745 5743 5741 5739 5736 5733 5730 5727 5724 5722 5721 5719 5717 5715 5713 5711 5709 5707 5705 5704 5702 5700 5697 5695 5694 5692 5690 5688 5684 5680 5678 5675 5673 5672 5671 5670 5665 5659 5660 5665 5665 5667 5675 5680 5681 5686 5693 5698 5704 5710 5715 5721 5726 5731 5736 5742 5747 5752 5757 5762 5766 5770 5774 5778 5782 5786 5789
5755 5751 5749 5747 5745 5743 5742 5739 5737 5735 5733 5730 5728 5725 5722 5720 5718 5715 5713 5711 5710 5708 5705 5703 5701 5699 5698 5696 5695 5692 5689 5687 5685 5684 5682 5679 5674 5670 5667 5664 5664 5664 5663 5659 5652 5651 5656 5657 5660 5668 5672 5674 5680 5687 5692 5698 5703 5708 5714 5719 5724 5730 5735 5741 5746 5751 5755 5760 5765 5769 5773 5777 5780 5783
5749 5746 5743 5740 5738 5737 5736 5734 5732 5730 5727 5724 5722 5719 5717 5715 5713 5710 5708 5706 5704 5702 5700 5698 5695 5694 5692 5691 5690 5687 5684 5681 5679 5677 5675 5672 5667 5662 5658 5655 5655 5656 5657 5652 5644 5643 5647 5650 5654 5661 5664 5668 5674 5680 5685 5691 5696 5701 5707 5713 5718 5724 5729 5734 5740 5745 5750 5754 5759 5764 5768 5772 5775 5778
5747 5744 5739 5735 5733 5732 5731 5729 5727 5724 5722 5719 5716 5713 5711 5709 5708 5706 5704 5702 5700 5697 5695 5693 5690 5688 5687 5685 5684 5682 5680 5677 5674 5671 5669 5665 5660 5655 5651 5647 5646 5648 5650 5645 5638 5637 5640 5644 5648 5653 5656 5661 5667 5673 5678 5684 5689 5695 5700 5706 5712 5718 5723 5728 5734 5739 5744 5749 5753 5758 5762 5766 5769 5772
5743 5740 5736 5731 5729 5727 5726 5724 5722 5719 5717 5713 5710 5708 5705 5704 5703 5701 5699 5697 5695 5693 5690 5688 5686 5684 5682 5680 5679 5677 5675 5672 5669 5666 5664 5660 5654 5649 5645 5641 5638 5639 5641 5638 5633 5631 5633 5637 5642 5646 5649 5655 5661 5666 5671 5677 5682 5688 5694 5699 5705 5711 5717 5722 5727 5733 5738 5743 5748 5753 5757 5760 5764 5768
5738 5735 5731 5728 5725 5723 5721 5719 5716 5714 5711 5708 5705 5702 5700 5698 5698 5696 5694 5692 5690 5688 5685 5684 5682 5680 5678 5676 5674 5672 5670 5668 5665 5663 5660 5656 5651 5645 5639 5635 5632 5631 5633 5632 5628 5625 5626 5631 5636 5639 5643 5649 5656 5660 5665 5670 5676 5682 5688 5693 5699 5705 5710 5716 5722 5727 5732 5738 5742 5747 5751 5755 5760 5764
5732 5729 5726 5723 5721 5719 5716 5713 5710 5708 5705 5702 5700 5697 5694 5693 5692 5690 5688 5687 5685 5683 5680 5679 5677 5675 5673 5672 5669 5667 5665 5663 5661 5659 5657 5653 5648 5643 5637 5631 5625 5624 5626 5626 5622 5619 5620 5625 5630 5633 5637 5644 5650 5654 5659 5665 5671 5676 5682 5688 5694 5699 5704 5710 5716 5721 5727 5732 5737 5742 5746 5750 5755 5759
5726 5724 5721 5718 5715 5713 5710 5707 5704 5701 5699 5696 5694 5691 5689 5688 5686 5684 5683 5681 5680 5678 5676 5674 5673 5671 5669 5667 5665 5663 5661 5659 5657 5656 5653 5649 5644 5640 5636 5630 5623 5619 5619 5619 5616 5613 5614 5618 5623 5627 5632 5639 5645 5649 5655 5661 5666 5671 5677 5683 5689 5694 5699 5704 5710 5716 5721 5726 5731 5736 5740 5744 5749 5753
5720 5718 5715 5712 5709 5707 5704 5701 5698 5695 5693 5691 5688 5686 5684 5683 5681 5679 5677 5676 5675 5673 5672 5670 5669 5667 5664 5663 5661 5659 5658 5656 5654 5652 5650 5645 5640 5636 5631 5626 5621 5616 5614 5613 5611 5609 5610 5613 5618 5621 5627 5634 5640 5645 5651 5656 5661 5666 5671 5677 5683 5688 5694 5699 5705 5711 5716 5721 5726 5730 5735 5740 5745 5749
5714 5712 5709 5706 5703 5701 5698 5696 5693 5690 5688 5686 5683 5681 5680 5678 5676 5674 5673 5671 5670 5669 5667 5666 5665 5663 5661 5659 5657 5655 5653 5652 5650 5649 5646 5642 5637 5631 5626 5621 5617 5613 5610 5609 5608 5607 5607 5609 5613 5617 5622 5629 5635 5640 5646 5651 5656 5661 5667 5672 5678 5683 5689 5694 5700 5705 5711 5716 5721 5726 5730 5735 5740 5743
5709 5706 5704 5701 5698 5695 5693 5691 5689 5686 5684 5681 5679 5677 5675 5673 5671 5670 5668 5667 5666 5664 5663 5662 5661 5659 5657 5655 5653 5651 5649 5648 5646 5645 5643 5639 5634 5628 5622 5618 5614 5611 5608 5606 5605 5605 5605 5607 5609 5614 5620 5625 5631 5636 5641 5646 5651 5657 5662 5668 5673 5679 5684 5689 5695 5701 5706 5711 5716 5720 5725 5729 5733 5737
5704 5701 5698 5696 5693 5690 5688 5686 5684 5682 5679 5677 5675 5672 5671 5669 5667 5665 5664 5663 5661 5660 5659 5658 5657 5655 5654 5652 5650 5648 5646 5644 5642 5640 5638 5635 5631 5625 5619 5613 5610 5608 5606 5604 5603 5604 5604 5605 5607 5612 5617 5623 5628 5633 5638 5642 5648 5653 5658 5664 5669 5675 5680 5685 5691 5696 5702 5706 5711 5715 5719 5724 5728 5732
5698 5696 5693 5691 5689 5686 5683 5681 5680 5677 5675 5673 5670 5668 5666 5665 5663 5661 5660 5658 5657 5656 5656 5655 5654 5652 5651 5649 5647 5645 5643 5641 5639 5637 5634 5630 5626 5621 5615 5609 5606 5605 5604 5602 5602 5603 5604 5605 5607 5611 5616 5621 5625 5630 5635 5640 5645 5649 5654 5660 5666 5671 5676 5681 5687 5692 5697 5701 5706 5710 5715 5719 5724 5728
5692 5689 5687 5685 5683 5681 5678 5677 5675 5673 5670 5668 5666 5664 5662 5661 5659 5657 5656 5654 5653 5653 5652 5652 5650 5649 5648 5646 5644 5642 5640 5638 5636 5633 5630 5627 5622 5618 5613 5607 5603 5602 5602 5601 5601 5602 5604 5605 5607 5610 5615 5619 5623 5628 5633 5637 5641 5646 5651 5656 5662 5667 5672 5677 5683 5688 5693 5698 5702 5707 5711 5716 5720 5724
5686 5683 5681 5679 5677 5675 5673 5672 5670 5668 5666 5664 5662 5660 5658 5657 5655 5653 5652 5651 5650 5649 5649 5648 5647 5646 5645 5643 5641 5639 5637 5635 5633 5630 5627 5624 5619 5615 5611 5605 5602 5600 5600 5600 5601 5602 5604 5606 5608 5611 5614 5618 5622 5626 5630 5634 5638 5642 5647 5652 5657 5663 5668 5673 5678 5684 5689 5693 5698 5703 5707 5712 5716 5720
5681 5678 5676 5674 5672 5670 5668 5667 5665 5664 5662 5660 5658 5657 5655 5653 5651 5649 5648 5647 5647 5646 5646 5645 5644 5643 5642 5640 5638 5637 5635 5633 5630 5628 5625 5621 5617 5612 5608 5604 5600 5599 5598 5599 5600 5602 5604 5606 5608 5611 5615 5617 5620 5624 5628 5632 5635 5639 5644 5648 5654 5659 5663 5668 5673 5679 5684 5688 5693 5698 5703 5707 5711 5715
5676 5673 5671 5669 5667 5665 5663 5662 5661 5659 5657 5656 5654 5653 5651 5649 5647 5646 5645 5644 5644 5643 5643 5642 5641 5640 5639 5637 5635 5634 5632 5631 5628 5626 5623 5619 5615 5611 5606 5602 5599 5597 5597 5598 5599 5601 5603 5605 5607 5610 5613 5615 5619 5622 5626 5629 5633 5637 5642 5647 5651 5655 5660 5664 5668 5673 5678 5683 5688 5693 5698 5703 5707 5710
5670 5669 5667 5665 5663 5661 5659 5657 5656 5655 5653 5652 5650 5649 5647 5646 5644 5643 5642 5641 5641 5640 5640 5639 5638 5637 5636 5634 5633 5631 5630 5628 5626 5624 5621 5618 5614 5609 5605 5602 5599 5597 5597 5597 5598 5599 5601 5603 5605 5608 5610 5613 5617 5621 5624 5627 5630 5635 5639 5643 5647 5651 5655 5660 5664 5668 5673 5678 5683 5689 5693 5698 5702 5705
5665 5664 5662 5660 5658 5656 5655 5653 5652 5651 5650 5648 5646 5645 5644 5642 5641 5640 5639 5638 5638 5637 5637 5636 5635 5634 5633 5632 5630 5629 5627 5626 5624 5622 5619 5616 5612 5609 5605 5601 5598 5596 5596 5596 5596 5597 5599 5600 5603 5605 5608 5611 5614 5618 5622 5625 5628 5632 5635 5639 5644 5648 5652 5656 5660 5664 5669 5674 5679 5684 5689 5693 5697 5700
5661 5659 5657 5655 5653 5652 5650 5649 5648 5647 5645 5644 5643 5641 5640 5639 5638 5637 5636 5635 5635 5634 5634 5633 5632 5632 5630 5629 5628 5627 5626 5624 5622 5619 5617 5614 5611 5608 5605 5601 5598 5596 5595 5595 5595 5595 5597 5599 5601 5603 5606 5609 5611 5615 5619 5623 5626 5630 5634 5637 5641 5646 5649 5653 5657 5661 5665 5669 5674 5679 5684 5688 5692 5695
5656 5654 5653 5651 5649 5648 5646 5645 5644 5643 5641 5640 5639 5638 5637 5636 5635 5634 5633 5632 5632 5632 5631 5630 5630 5629 5628 5627 5626 5625 5624 5622 5620 5618 5616 5613 5611 5608 5604 5601 5598 5595 5594 5594 5594 5595 5596 5598 5600 5602 5604 5607 5609 5612 5616 5620 5624 5629 5632 5635 5639 5643 5646 5650 5654 5658 5662 5666 5670 5675 5681 5685 5688 5691
5652 5650 5649 5647 5645 5644 5642 5641 5640 5639 5638 5637 5636 5635 5634 5633 5632 5632 5631 5630 5629 5629 5629 5628 5627 5627 5626 5625 5624 5623 5621 5620 5618 5617 5615 5613 5611 5608 5605 5601 5598 5596 5594 5594 5594 5595 5596 5597 5599 5600 5603 5605 5607 5610 5613 5617 5621 5625 5628 5631 5636 5640 5644 5647 5651 5655 5659 5663 5667 5672 5677 5680 5683 5687
5647 5646 5644 5643 5641 5640 5638 5637 5636 5635 5634 5634 5633 5632 5631 5631 5630 5629 5628 5628 5627 5627 5626 5626 5625 5625 5624 5623 5622 5620 5619 5618 5617 5615 5613 5612 5610 5607 5605 5602 5599 5597 5595 5594 5594 5594 5595 5596 5598 5600 5602 5604 5606 5609 5611 5615 5619 5622 5625 5628 5632 5636 5640 5644 5648 5652 5655 5659 5663 5668 5673 5675 5678 5682
5643 5642 5640 5639 5638 5636 5635 5634 5633 5632 5632 5631 5630 5629 5629 5628 5627 5627 5626 5625 5625 5624 5624 5623 5623 5622 5622 5621 5619 5618 5617 5616 5615 5614 5612 5611 5609 5607 5605 5602 5600 5598 5596 5594 5593 5594 5594 5595 5596 5599 5601 5603 5605 5608 5611 5614 5617 5620 5623 5626 5630 5633 5637 5641 5644 5647 5651 5655 5659 5664 5668 5671 5674 5678
5639 5638 5637 5636 5635 5633 5632 5631 5630 5629 5629 5628 5627 5627 5626 5625 5624 5624 5623 5623 5622 5622 5622 5621 5621 5620 5619 5618 5617 5616 5615 5614 5613 5612 5611 5609 5608 5607 5605 5603 5601 5599 5597 5595 5594 5594 5593 5593 5595 5598 5600 5602 5604 5607 5610 5613 5615 5618 5620 5623 5627 5631 5634 5637 5640 5644 5647 5651 5654 5658 5662 5665 5668 5672
5635 5634 5633 5632 5631 5630 5629 5628 5627 5626 5626 5625 5624 5623 5623 5622 5621 5621 5621 5620 5620 5620 5619 5619 5618 5617 5617 5616 5615 5614 5613 5613 5612 5611 5610 5608 5607 5606 5605 5603 5601 5599 5598 5596 5595 5594 5593 5593 5595 5597 5599 5600 5602 5605 5608 5611 5613 5615 5618 5620 5623 5627 5630 5632 5635 5639 5643 5646 5649 5653 5656 5659 5663 5667